EW9776 Weather Reports


Display with metric or nautical units.
time (UTC)temp
F
wind
direction
speed
MPH
gust
MPH
rain 1hr
in
rain 24hr
in
rain mn
in
humidity
%
barometer
mb
20260510073036 55 176 3.0 6.0 0.00 0.00 0.00 58 1018.2
20260510071533 55 176 3.0 6.0 0.00 0.00 0.00 58 1018.2
20260510070042 53 180 4.0 6.0 0.00 0.00 0.00 63 1018.2
20260510064530 54 180 3.0 5.0 0.00 0.00 0.00 62 1018.1
20260510063032 54 156 2.0 4.0 0.00 0.00 0.00 60 1018.0
20260510060031 54 146 2.0 3.0 0.00 0.00 0.00 59 1018.0
20260510054532 56 129 2.0 4.0 0.00 0.00 0.00 56 1017.8
20260510053109 57 130 1.0 3.0 0.00 0.00 0.00 51 1017.8
20260510051535 58 132 0.0 3.0 0.00 0.00 0.00 48 1017.7
20260510050036 59 103 2.0 5.0 0.00 0.00 0.00 46 1017.5
20260510044534 59 145 1.0 5.0 0.00 0.00 0.00 48 1017.5
20260510041532 59 131 1.0 3.0 0.00 0.00 0.00 50 1017.3
20260510040032 60 173 2.0 4.0 0.00 0.00 0.00 50 1017.1
20260510034531 62 157 0.0 3.0 0.00 0.00 0.00 48 1017.0
20260510033109 64 146 0.0 3.0 0.00 0.00 0.00 50 1016.9
20260510031533 65 173 1.0 3.0 0.00 0.00 0.00 52 1017.0
20260510030035 66 117 0.0 3.0 0.00 0.00 0.00 53 1017.0
20260510024538 67 184 3.0 4.0 0.00 0.00 0.00 58 1017.0
20260510023119 68 173 2.0 4.0 0.00 0.00 0.00 58 1017.0
20260510021535 69 180 2.0 4.0 0.00 0.00 0.00 55 1016.9
20260510020112 71 188 1.0 2.0 0.00 0.00 0.00 49 1017.0
20260510014536 73 202 1.0 2.0 0.00 0.00 0.00 44 1017.2
20260510013035 73 275 1.0 3.0 0.00 0.00 0.00 38 1017.3
20260510011536 74 337 3.0 6.0 0.00 0.00 0.00 35 1017.4
20260510010031 75 341 4.0 8.0 0.00 0.00 0.00 33 1017.4
20260510004535 77 349 5.0 7.0 0.00 0.00 0.00 33 1017.4
20260510003034 78 351 5.0 9.0 0.00 0.00 0.00 32 1017.5
20260510001545 77 360 3.0 8.0 0.00 0.00 0.00 32 1017.5
20260510000037 77 359 3.0 7.0 0.00 0.00 0.00 33 1017.6
20260509234535 79 357 5.0 8.0 0.00 0.00 0.00 33 1017.8
20260509233037 78 1 6.0 9.0 0.00 0.00 0.00 34 1018.0
20260509231535 77 349 6.0 11.0 0.00 0.00 0.00 35 1018.3
20260509223036 76 359 6.0 13.0 0.00 0.00 0.00 37 1019.0
20260509221537 74 356 6.0 10.0 0.00 0.00 0.00 40 1019.5
20260509214534 74 330 6.0 11.0 0.00 0.00 0.00 40 1019.6
20260509213035 73 334 7.0 12.0 0.00 0.00 0.00 41 1019.8
20260509210033 73 359 7.0 10.0 0.00 0.00 0.00 43 1020.1
20260509204538 72 331 6.0 11.0 0.00 0.00 0.00 45 1020.3
20260509203036 72 354 6.0 10.0 0.00 0.00 0.00 47 1020.5
20260509201532 70 334 4.0 8.0 0.00 0.00 0.00 49 1021.0
20260509194533 69 340 5.0 9.0 0.00 0.00 0.00 50 1021.2
20260509193033 68 337 4.0 8.0 0.00 0.00 0.00 51 1021.4
20260509191534 68 357 4.0 10.0 0.00 0.00 0.00 52 1021.6
20260509190036 67 360 3.0 8.0 0.00 0.00 0.00 52 1021.8
20260509184536 67 2 2.0 7.0 0.00 0.00 0.00 52 1021.9
20260509183110 65 15 2.0 5.0 0.00 0.00 0.00 54 1022.2
20260509181531 64 334 3.0 7.0 0.00 0.00 0.00 55 1022.3
20260509180109 63 315 3.0 6.0 0.00 0.00 0.00 55 1022.3
20260509174534 64 325 2.0 7.0 0.00 0.00 0.00 55 1022.3
20260509171532 61 6 3.0 7.0 0.00 0.00 0.00 58 1022.6
20260509170036 60 14 3.0 7.0 0.00 0.00 0.00 58 1022.7
20260509164535 60 360 2.0 5.0 0.00 0.00 0.00 59 1022.7
20260509163036 59 6 2.0 4.0 0.00 0.00 0.00 63 1022.9
20260509161534 57 9 0.0 6.0 0.00 0.00 0.00 67 1023.0
20260509160034 58 10 3.0 5.0 0.00 0.00 0.00 66 1023.1
20260509154529 58 24 3.0 6.0 0.00 0.00 0.00 66 1023.1
20260509153036 57 359 3.0 5.0 0.00 0.00 0.00 66 1023.0
20260509150034 55 57 0.0 3.0 0.00 0.00 0.00 70 1022.9
20260509144533 51 37 0.0 1.0 0.00 0.00 0.00 78 1023.0
20260509143032 48 308 0.0 4.0 0.00 0.00 0.00 85 1023.0
20260509141537 45 248 1.0 4.0 0.00 0.00 0.00 88 1022.9
20260509140108 45 157 0.0 2.0 0.00 0.00 0.00 88 1022.8
20260509134534 44 122 1.0 3.0 0.00 0.00 0.00 90 1022.8
20260509133107 43 112 2.0 4.0 0.00 0.00 0.00 93 1022.8
20260509131536 41 171 2.0 4.0 0.00 0.00 0.00 91 1022.6
20260509130034 42 157 1.0 3.0 0.00 0.00 0.00 90 1022.4
20260509124530 43 157 2.0 3.0 0.00 0.00 0.00 90 1022.4
20260509123033 43 158 2.0 4.0 0.00 0.00 0.00 91 1022.3
20260509121536 43 181 1.0 4.0 0.00 0.00 0.00 90 1022.3
20260509120033 43 176 2.0 4.0 0.00 0.00 0.00 89 1022.3
20260509114609 44 130 1.0 3.0 0.00 0.00 0.00 89 1022.3
20260509111533 44 180 2.0 3.0 0.00 0.00 0.00 86 1022.3
20260509104531 46 180 2.0 5.0 0.00 0.00 0.00 84 1022.3
20260509103034 46 180 3.0 4.0 0.00 0.00 0.00 81 1022.5
20260509101534 48 174 0.0 3.0 0.00 0.00 0.00 77 1022.5
20260509100109 51 211 0.0 2.0 0.00 0.00 0.00 72 1022.5
20260509094534 53 263 1.0 9.0 0.00 0.00 0.00 68 1022.5
20260509093035 54 216 6.0 13.0 0.00 0.00 0.00 68 1022.5
20260509091536 54 214 5.0 11.0 0.00 0.00 0.00 67 1022.6
20260509090045 55 219 6.0 12.0 0.00 0.00 0.00 67 1022.8
20260509090035 55 214 7.0 13.0 0.00 0.00 0.00 67 1023.0
20260509083109 54 215 7.0 13.0 0.00 0.00 0.00 67 1023.2
20260509081530 54 213 7.0 12.0 0.00 0.00 0.00 66 1023.3
20260509080029 55 206 7.0 13.0 0.00 0.00 0.00 66 1023.3